Temperature
1 1 2 2 2 2 2 2 2 2 2 2 2 2 2 2 2 2 2 2 2 2 2 2 2 2 1 1 1 1 1 1 1 1 1 2 2 2 2 2 2 2 3
1 1 1 1 1 1 1 1 1 2 2 2 2 1 1 2 1 1 1 1 1 1 1 1 1 1 1 1 1 1 0 0 0 0 1 1 1 1 1 1 2 2 2
0 0 0 0 0 0 0 1 1 1 1 1 1 1 1 1 1 1 1 1 1 0 0 0 0 0 0 0 -0 -0 -0 -0 -0 -0 -0 -0 0 0 0 1 1 1 1
-0 -1 -0 -0 -0 -0 -0 -0 -0 0 0 0 0 0 0 0 0 -0 -0 -0 -0 -0 -0 -0 -0 -1 -1 -1 -1 -1 -1 -1 -1 -1 -1 -1 -1 -1 -1 -1 0 0 1
-1 -1 -1 -1 -1 -1 -1 -1 -1 -1 -1 -1 -0 -1 -1 -1 -1 -1 -1 -1 -1 -1 -1 -1 -1 -1 -1 -1 -1 -1 -2 -2 -2 -2 -2 -2 -1 -1 -1 -1 -1 -1 -0
-2 -2 -2 -2 -2 -2 -2 -2 -2 -1 -1 -1 -1 -1 -1 -1 -1 -2 -2 -2 -2 -2 -2 -2 -2 -2 -2 -2 -2 -2 -2 -2 -2 -2 -2 -2 -2 -2 -2 -2 -2 -2 -2
-3 -3 -3 -3 -3 -3 -3 -2 -2 -2 -2 -2 -2 -2 -2 -2 -2 -2 -2 -2 -2 -3 -3 -3 -3 -3 -2 -2 -2 -2 -2 -2 -3 -3 -3 -3 -3 -3 -3 -3 -3 -3 -3
-3 -4 -3 -4 -3 -3 -3 -3 -3 -3 -3 -3 -3 -3 -3 -3 -3 -3 -3 -3 -3 -3 -3 -3 -3 -3 -3 -3 -3 -3 -3 -3 -3 -3 -3 -3 -3 -3 -3 -3 -3 -3 -3
-4 -4 -4 -4 -4 -4 -4 -4 -4 -4 -4 -4 -4 -4 -4 -3 -4 -4 -4 -4 -4 -4 -4 -4 -4 -4 -4 -4 -4 -4 -3 -3 -3 -4 -4 -4 -4 -4 -4 -4 -4 -4 -4
-5 -5 -5 -5 -5 -5 -5 -5 -5 -5 -4 -4 -4 -4 -4 -4 -4 -4 -4 -4 -4 -5 -4 -5 -5 -4 -4 -4 -4 -4 -4 -4 -4 -4 -4 -4 -4 -4 -5 -5 -5 -5 -5
-6 -6 -6 -6 -6 -6 -6 -5 -5 -5 -5 -5 -5 -5 -5 -5 -5 -5 -5 -5 -5 -5 -5 -5 -5 -5 -5 -5 -5 -5 -5 -5 -5 -4 -4 -5 -5 -5 -5 -5 -5 -5 -5
-6 -6 -6 -6 -7 -7 -7 -6 -6 -6 -6 -6 -6 -6 -6 -6 -6 -6 -6 -6 -6 -6 -6 -6 -6 -6 -6 -6 -5 -5 -5 -5 -5 -5 -5 -5 -5 -5 -5 -5 -5 -5 -5
-7 -7 -7 -7 -7 -7 -7 -7 -7 -7 -7 -7 -7 -7 -6 -6 -6 -6 -7 -7 -7 -7 -7 -7 -6 -6 -6 -6 -6 -6 -6 -6 -6 -6 -6 -6 -6 -6 -6 -6 -6 -6 -6
-8 -8 -8 -8 -8 -8 -8 -8 -8 -8 -8 -8 -8 -8 -8 -8 -7 -7 -7 -7 -7 -7 -7 -7 -7 -7 -7 -7 -7 -7 -7 -7 -7 -7 -7 -7 -7 -7 -6 -6 -6 -6 -6
-8 -8 -9 -9 -9 -9 -9 -9 -9 -9 -9 -9 -9 -9 -9 -8 -8 -8 -8 -8 -8 -8 -8 -8 -8 -7 -7 -7 -7 -7 -7 -7 -7 -7 -7 -7 -7 -7 -7 -7 -7 -7 -7
-9 -9 -9 -10 -10 -10 -10 -10 -10 -10 -10 -10 -10 -10 -9 -9 -9 -9 -9 -8 -8 -8 -8 -8 -8 -8 -8 -8 -8 -8 -8 -8 -8 -8 -8 -8 -8 -8 -8 -8 -8 -8 -8
-10 -10 -10 -10 -10 -10 -10 -10 -10 -10 -10 -10 -10 -10 -10 -10 -9 -9 -9 -9 -9 -9 -9 -9 -9 -9 -9 -9 -9 -9 -9 -9 -9 -9 -9 -9 -9 -9 -9 -9 -9 -9 -9
-10 -11 -11 -11 -11 -11 -11 -11 -11 -11 -11 -10 -10 -10 -10 -10 -10 -10 -10 -10 -9 -9 -9 -9 -9 -9 -9 -9 -9 -9 -9 -9 -9 -9 -10 -10 -10 -10 -10 -10 -10 -9 -9
-11 -11 -11 -11 -11 -11 -11 -12 -12 -12 -12 -11 -11 -11 -11 -11 -11 -10 -10 -10 -10 -10 -10 -10 -10 -10 -10 -10 -10 -10 -10 -10 -10 -10 -10 -10 -11 -10 -10 -10 -10 -10 -10
-11 -12 -12 -12 -12 -12 -12 -12 -12 -12 -12 -12 -12 -12 -12 -11 -11 -11 -11 -11 -11 -11 -11 -11 -11 -11 -11 -11 -11 -11 -11 -11 -11 -11 -11 -11 -11 -11 -11 -11 -11 -11 -11
-12 -12 -12 -12 -12 -12 -12 -12 -12 -12 -12 -13 -12 -12 -12 -12 -12 -12 -12 -12 -12 -12 -12 -12 -12 -12 -12 -12 -12 -12 -12 -12 -12 -12 -12 -12 -12 -12 -12 -12 -12 -12 -12
-12 -12 -13 -13 -13 -13 -13 -13 -13 -13 -13 -13 -13 -13 -13 -13 -13 -13 -13 -13 -13 -13 -13 -12 -12 -12 -12 -12 -12 -12 -12 -12 -12 -12 -12 -12 -12 -12 -12 -12 -12 -12 -12
-13 -13 -13 -13 -13 -13 -13 -13 -14 -13 -13 -13 -13 -13 -13 -13 -13 -13 -13 -13 -13 -13 -13 -13 -13 -13 -13 -13 -13 -13 -12 -13 -13 -13 -13 -13 -13 -13 -13 -13 -13 -13 -13
-13 -13 -13 -13 -14 -14 -14 -14 -14 -14 -14 -14 -14 -14 -14 -14 -14 -14 -14 -14 -13 -13 -13 -13 -13 -13 -13 -13 -13 -13 -13 -13 -13 -13 -13 -13 -13 -13 -13 -13 -13 -13 -13
-13 -14 -14 -14 -14 -14 -14 -14 -14 -14 -14 -14 -14 -14 -14 -14 -14 -14 -14 -14 -14 -14 -14 -14 -14 -14 -13 -13 -13 -13 -13 -13 -13 -13 -13 -13 -13 -13 -14 -14 -13 -13 -13
-14 -14 -14 -14 -14 -14 -14 -14 -14 -15 -15 -15 -15 -15 -15 -15 -14 -14 -14 -14 -14 -14 -14 -14 -14 -14 -14 -13 -13 -13 -13 -13 -13 -13 -14 -14 -14 -14 -14 -14 -14 -14 -14
Wind_Speed
1 1 1 1 1 1 1 2 3 2 3 4 5 4 5 5 5 5 5 5 6 5 4 5 5 4 4 4 3 3 3 3 5 4 2 2 3 4 5 6 7 7 8
2 1 1 1 1 1 1 2 2 3 3 4 3 4 5 6 6 6 6 6 6 6 6 6 6 4 5 4 4 5 4 4 4 6 3 2 3 3 3 3 5 6 7
2 2 1 1 1 2 2 2 2 3 3 3 3 4 5 6 6 6 7 7 7 7 7 7 6 6 6 5 5 5 5 4 4 4 4 3 2 2 2 3 4 4 6
2 2 2 2 2 2 2 2 2 2 3 3 3 4 5 5 6 6 6 6 6 6 6 6 7 7 8 7 6 7 5 5 4 4 4 3 2 2 2 3 4 3 4
2 2 3 3 3 3 2 2 2 2 3 3 3 3 4 4 5 6 6 6 6 6 6 6 6 7 8 7 6 6 6 5 5 5 4 3 3 2 3 3 5 4 4
2 2 3 3 3 3 3 2 2 2 2 2 2 3 3 4 6 7 6 5 5 6 5 5 5 6 7 8 8 7 7 7 7 6 5 6 6 5 4 3 3 3 4
2 2 3 3 3 3 3 3 2 2 2 2 2 2 3 4 6 6 6 5 5 5 5 4 4 4 5 5 6 7 7 9 10 8 7 7 6 6 5 5 5 5 5
2 2 3 3 3 3 3 3 3 3 2 2 2 2 3 4 5 4 4 4 4 4 5 5 5 5 5 5 4 5 6 6 8 7 7 7 7 6 6 6 6 5 4
2 3 3 3 3 3 3 3 3 3 3 3 2 2 3 4 5 4 3 2 3 4 4 4 5 5 6 6 5 5 5 5 7 8 9 8 8 7 5 3 3 3 4
3 3 3 3 3 3 3 3 3 2 3 3 3 2 2 3 4 4 3 2 2 3 3 4 5 6 7 7 6 6 6 6 4 4 6 6 5 5 7 5 5 5 3
3 2 2 3 3 2 2 2 2 2 2 2 3 3 3 3 4 4 4 2 2 3 3 3 4 6 6 7 7 6 8 6 4 4 3 3 3 3 4 5 5 5 5
2 2 2 2 2 2 2 2 2 2 2 2 2 3 3 3 4 4 4 4 3 3 3 3 4 5 5 6 6 6 7 5 3 3 3 3 3 3 4 4 5 6 6
2 2 2 3 2 2 1 2 2 2 2 2 2 2 3 3 3 4 4 4 4 3 3 4 4 4 3 3 4 5 4 3 3 3 4 4 3 3 3 3 4 4 4
1 2 2 2 2 2 2 1 1 2 2 2 2 3 3 3 3 3 2 2 3 3 2 2 2 2 2 2 2 2 2 2 3 3 3 3 2 2 2 2 3 3 3
1 2 2 2 2 2 2 2 2 2 2 2 2 2 3 3 4 5 2 2 2 2 1 1 1 1 1 1 1 1 2 2 2 2 2 2 2 2 2 1 2 2 3
1 2 2 2 2 2 2 3 4 4 5 5 5 4 4 5 6 5 5 4 4 2 1 1 2 2 2 2 1 1 1 2 2 2 2 2 2 2 2 2 1 2 3
1 2 1 2 2 2 2 2 3 4 5 5 5 6 6 6 6 6 5 4 3 1 1 1 2 2 2 2 2 2 2 2 2 2 2 2 2 2 2 2 2 2 3
1 2 2 1 2 2 2 2 2 2 3 4 5 6 7 7 6 6 5 3 2 2 1 1 2 2 2 2 2 2 2 2 1 2 2 2 2 2 2 2 2 3 3
1 1 1 1 1 1 1 1 2 2 2 3 4 5 6 6 6 6 5 2 1 1 1 1 1 1 1 1 1 1 1 1 1 1 1 1 2 1 2 2 2 4 3
1 3 2 1 1 1 1 1 1 1 2 3 3 3 4 4 3 4 3 2 1 1 1 1 2 1 1 1 1 1 1 1 1 2 2 2 2 2 2 3 3 3 3
1 2 3 2 1 1 1 1 1 1 2 3 3 3 3 2 2 2 2 2 2 2 2 2 2 2 2 1 1 1 2 2 2 2 2 2 2 2 2 3 3 3 3
1 1 1 1 2 2 2 2 2 2 2 3 3 4 5 3 2 2 2 2 2 2 2 2 2 2 2 2 2 2 2 2 2 2 3 3 2 3 3 3 3 3 3
1 1 1 1 2 3 2 2 2 2 2 3 3 3 3 2 2 2 3 3 3 2 2 2 2 3 3 3 3 3 3 4 3 3 3 3 3 3 3 3 3 3 3
1 2 2 2 2 2 2 2 2 2 2 3 3 3 3 3 3 3 3 3 3 3 3 3 3 4 5 5 5 5 5 6 5 5 5 4 4 3 3 3 4 4 4
2 2 2 2 2 2 2 2 2 3 3 3 3 3 3 3 3 3 3 3 3 4 4 5 4 5 6 7 7 7 7 8 7 6 5 5 5 5 4 4 4 4 4
2 2 2 2 2 2 2 3 3 3 3 3 3 3 4 4 4 4 4 3 4 4 5 5 6 7 8 8 8 9 9 9 9 8 6 4 4 4 4 4 5 4 4
Wind_Direction
327 302 294 288 279 248 233 241 245 251 232 224 226 217 217 216 210 206 211 210 209 216 218 216 226 220 211 211 210 215 225 224 249 266 263 265 241 261 273 267 264 263 268
313 310 293 295 300 271 263 264 262 256 255 238 221 219 226 217 211 208 212 213 212 217 220 220 225 222 219 215 211 216 223 225 236 263 274 270 255 257 261 268 270 268 269
340 340 335 322 304 288 279 278 268 257 259 250 228 224 227 220 215 212 211 213 215 219 219 219 223 218 225 224 217 218 223 229 231 245 264 268 269 275 284 285 281 271 276
351 346 341 328 309 292 287 282 275 261 258 246 241 239 237 226 219 214 212 214 217 222 223 223 223 220 223 222 222 219 217 221 225 236 255 259 258 265 257 272 282 274 281
350 342 328 329 330 329 317 305 295 282 273 253 240 246 242 230 223 215 210 212 214 220 225 226 226 227 228 224 225 219 211 218 225 233 247 255 250 254 252 252 264 281 275
335 325 329 338 340 335 325 317 309 297 294 267 241 237 244 245 240 229 219 212 212 217 225 230 233 233 234 237 240 234 224 219 221 227 237 243 249 248 250 253 261 278 274
327 328 330 333 332 326 324 331 319 299 299 275 255 252 255 262 259 241 228 217 211 216 222 226 234 240 234 229 241 242 241 241 230 224 231 237 241 237 234 243 248 256 265
328 325 329 333 326 328 330 326 320 309 293 279 260 262 267 273 269 255 236 220 214 221 225 225 227 235 230 228 233 239 239 242 242 236 230 234 236 236 225 230 242 255 273
316 316 319 315 315 323 321 317 315 314 317 306 277 259 262 277 280 269 254 219 224 232 236 231 230 232 240 238 231 240 250 252 253 250 251 251 249 246 236 226 234 249 267
299 303 307 307 303 306 305 306 309 308 308 316 311 289 277 278 281 277 262 230 231 241 243 246 248 248 246 238 226 227 244 249 242 249 255 256 249 241 233 226 224 235 256
308 316 319 317 311 305 310 310 310 315 318 314 313 310 294 285 286 281 268 244 230 237 244 248 255 260 257 251 243 235 244 249 230 234 242 244 241 233 236 238 235 232 235
324 328 326 326 327 331 324 322 326 329 323 314 318 316 311 301 295 287 280 270 261 238 244 250 255 259 258 258 252 252 254 247 229 231 240 245 248 250 247 242 241 242 242
342 338 332 336 337 331 316 319 330 334 322 308 311 309 311 315 307 301 292 285 282 257 251 257 262 269 267 266 275 275 266 243 225 233 241 249 251 254 267 256 244 246 259
332 331 337 342 337 335 330 327 319 314 307 305 304 301 307 309 305 300 289 278 279 271 270 273 286 297 291 286 290 301 290 270 241 236 241 253 253 245 252 255 252 252 257
331 330 336 337 331 329 329 316 312 299 299 303 294 290 292 294 294 297 288 274 256 242 216 239 269 274 279 287 293 296 297 295 281 281 267 258 257 257 269 274 260 265 250
332 334 329 329 330 332 336 335 326 324 327 335 331 322 306 310 315 316 310 296 283 265 244 243 252 248 242 251 262 280 287 287 281 275 275 269 262 263 272 281 278 260 265
266 291 301 313 313 318 327 335 332 333 337 339 339 339 337 333 331 330 322 311 314 327 292 261 259 258 250 243 252 259 268 277 277 274 273 272 269 264 265 269 263 265 269
281 291 303 291 293 300 306 311 314 322 330 332 333 338 342 343 343 347 349 354 356 1 321 279 274 278 271 259 254 258 269 286 292 290 287 289 283 276 273 267 260 257 266
290 286 290 296 296 298 304 311 315 317 318 322 329 335 343 345 351 358 7 22 4 346 333 312 297 289 287 271 260 257 259 267 276 280 284 284 283 280 281 281 275 276 271
284 295 313 310 312 313 311 307 307 309 312 316 319 323 334 345 353 351 3 9 357 330 323 316 309 298 286 275 262 253 255 259 264 262 268 273 274 267 268 271 275 280 273
288 296 316 323 300 290 289 288 287 290 293 301 306 312 323 333 337 334 333 333 322 311 309 308 307 303 296 284 263 248 247 255 256 257 262 263 262 263 264 263 265 269 276
262 274 283 279 288 287 291 290 289 289 292 298 307 316 328 339 331 322 317 313 309 301 287 290 294 289 284 276 265 257 252 252 251 250 256 258 257 259 262 262 266 269 272
229 257 284 281 281 284 301 299 293 290 293 298 303 313 320 317 312 307 306 308 308 301 297 287 283 285 284 279 265 249 250 255 254 247 243 250 252 253 253 255 259 266 269
218 244 264 275 278 278 281 286 287 287 288 293 299 301 301 300 300 301 302 300 300 296 291 281 274 276 280 283 283 270 261 261 256 248 235 235 241 248 248 251 255 256 259
230 245 257 264 271 277 279 282 283 285 287 289 291 293 296 297 296 296 296 294 293 291 289 285 282 280 280 278 278 276 275 272 265 253 239 231 234 238 242 246 251 257 261
243 247 254 263 266 267 269 272 276 280 283 286 286 285 287 289 290 292 293 293 293 292 288 285 281 281 283 282 280 277 276 274 271 264 250 232 227 236 235 239 243 246 252
Height
1467 1468 1470 1471 1472 1472 1473 1474 1474 1475 1476 1477 1478 1478 1480 1481 1482 1483 1484 1486 1487 1488 1490 1491 1492 1493 1494 1495 1497 1498 1499 1499 1498 1498 1499 1501 1501 1502 1502 1503 1503 1503 1504
1464 1465 1466 1466 1467 1467 1468 1469 1469 1470 1471 1472 1473 1473 1474 1475 1476 1477 1478 1480 1481 1482 1484 1485 1486 1487 1488 1490 1491 1492 1493 1494 1494 1493 1493 1494 1495 1496 1496 1497 1497 1498 1498
1461 1461 1462 1462 1462 1463 1463 1464 1464 1465 1466 1466 1467 1468 1469 1470 1470 1471 1473 1474 1475 1476 1478 1479 1480 1481 1482 1483 1485 1486 1487 1488 1489 1489 1488 1489 1490 1490 1490 1491 1491 1492 1492
1458 1458 1458 1458 1458 1458 1459 1459 1460 1460 1460 1461 1461 1462 1463 1464 1465 1466 1467 1468 1469 1471 1472 1473 1474 1475 1476 1477 1479 1480 1481 1482 1483 1483 1483 1484 1484 1485 1485 1485 1484 1485 1485
1454 1454 1454 1454 1454 1454 1454 1455 1455 1455 1455 1455 1456 1457 1458 1459 1459 1460 1462 1463 1464 1465 1466 1467 1468 1469 1470 1472 1473 1474 1475 1476 1477 1477 1478 1478 1478 1479 1479 1478 1478 1478 1478
1451 1451 1451 1451 1450 1450 1450 1450 1451 1451 1451 1451 1451 1451 1452 1453 1454 1456 1457 1457 1458 1459 1460 1461 1462 1463 1464 1465 1467 1468 1469 1470 1471 1471 1471 1472 1472 1473 1473 1473 1473 1472 1471
1448 1447 1447 1447 1446 1446 1446 1446 1446 1446 1446 1446 1446 1447 1447 1448 1449 1450 1451 1452 1453 1454 1454 1455 1456 1457 1459 1460 1460 1461 1462 1463 1465 1466 1465 1465 1466 1467 1468 1468 1467 1467 1466
1445 1444 1444 1443 1443 1442 1442 1442 1442 1442 1442 1442 1442 1442 1443 1443 1444 1445 1446 1447 1448 1448 1449 1450 1451 1452 1453 1454 1455 1455 1455 1456 1458 1459 1459 1460 1461 1462 1462 1463 1462 1462 1461
1441 1441 1440 1440 1439 1438 1438 1438 1438 1437 1437 1438 1438 1438 1438 1438 1439 1440 1441 1442 1442 1443 1444 1445 1446 1446 1447 1448 1449 1449 1449 1450 1451 1453 1454 1454 1455 1456 1456 1457 1456 1456 1454
1438 1438 1438 1437 1436 1435 1435 1434 1434 1434 1433 1433 1434 1434 1434 1434 1435 1436 1437 1437 1437 1437 1438 1439 1440 1441 1441 1442 1443 1443 1443 1444 1445 1446 1447 1447 1448 1449 1450 1451 1451 1450 1449
1435 1435 1435 1434 1433 1432 1432 1431 1431 1430 1429 1429 1429 1430 1430 1430 1430 1431 1432 1432 1432 1432 1433 1433 1434 1435 1436 1437 1438 1438 1438 1439 1439 1439 1440 1441 1442 1443 1444 1444 1445 1445 1444
1432 1432 1431 1431 1430 1429 1428 1428 1427 1426 1426 1425 1425 1425 1425 1426 1426 1426 1427 1427 1428 1428 1428 1429 1429 1430 1431 1432 1432 1432 1433 1434 1434 1434 1434 1434 1435 1436 1437 1438 1438 1439 1439
1429 1429 1428 1427 1427 1426 1425 1424 1424 1423 1423 1422 1421 1421 1421 1421 1421 1421 1422 1423 1423 1424 1424 1424 1425 1425 1426 1426 1427 1427 1428 1428 1428 1428 1428 1429 1429 1430 1431 1432 1432 1432 1433
1426 1425 1425 1424 1424 1423 1423 1422 1421 1421 1420 1419 1419 1418 1418 1417 1417 1418 1418 1418 1419 1419 1420 1420 1420 1421 1421 1421 1421 1422 1422 1422 1423 1423 1423 1424 1424 1425 1425 1426 1426 1426 1426
1423 1423 1422 1422 1421 1420 1420 1420 1419 1418 1418 1417 1416 1416 1415 1414 1414 1415 1415 1415 1415 1415 1415 1415 1415 1416 1416 1416 1416 1416 1417 1417 1418 1418 1418 1418 1419 1419 1420 1420 1420 1420 1420
1420 1420 1419 1419 1418 1418 1417 1416 1416 1416 1415 1415 1414 1413 1412 1412 1411 1411 1411 1411 1411 1411 1412 1411 1411 1411 1411 1411 1411 1411 1412 1413 1413 1413 1414 1414 1414 1414 1415 1415 1415 1415 1415
1418 1418 1417 1417 1416 1415 1415 1414 1412 1412 1412 1412 1411 1410 1410 1409 1408 1408 1408 1408 1407 1407 1407 1406 1406 1406 1406 1407 1407 1407 1408 1408 1409 1409 1409 1409 1409 1409 1410 1410 1410 1410 1410
1416 1416 1415 1415 1414 1414 1413 1412 1411 1410 1409 1408 1408 1408 1407 1406 1405 1405 1404 1404 1403 1403 1403 1402 1402 1402 1402 1402 1402 1403 1403 1404 1404 1404 1404 1404 1404 1405 1405 1405 1405 1406 1405
1414 1414 1413 1413 1412 1412 1411 1410 1409 1408 1407 1406 1405 1404 1404 1403 1402 1402 1401 1400 1399 1399 1399 1399 1398 1398 1398 1398 1398 1399 1399 1399 1400 1400 1400 1400 1400 1400 1400 1400 1401 1401 1401
1412 1412 1411 1411 1410 1409 1408 1408 1407 1406 1405 1404 1403 1402 1401 1400 1398 1398 1397 1397 1396 1396 1395 1395 1395 1395 1395 1395 1395 1395 1395 1395 1395 1396 1396 1396 1396 1396 1396 1396 1396 1396 1396
1410 1409 1409 1408 1408 1407 1406 1405 1405 1404 1403 1402 1401 1400 1399 1398 1396 1396 1395 1394 1393 1393 1392 1392 1392 1392 1392 1392 1391 1391 1391 1391 1391 1392 1392 1392 1392 1392 1393 1393 1393 1393 1392
1407 1407 1406 1406 1405 1404 1404 1403 1403 1402 1401 1400 1399 1398 1397 1396 1395 1394 1393 1392 1391 1390 1390 1390 1389 1389 1389 1388 1388 1388 1388 1388 1388 1388 1388 1389 1389 1389 1389 1389 1389 1389 1388
1405 1404 1403 1403 1402 1402 1401 1401 1400 1399 1398 1398 1397 1395 1394 1393 1392 1391 1390 1389 1389 1388 1387 1387 1386 1385 1385 1385 1385 1384 1384 1384 1385 1385 1385 1385 1385 1385 1385 1385 1385 1385 1385
1402 1401 1400 1400 1399 1399 1398 1398 1397 1396 1396 1395 1394 1392 1391 1390 1389 1388 1387 1386 1385 1385 1384 1383 1382 1382 1381 1381 1381 1380 1380 1381 1381 1381 1381 1381 1381 1381 1381 1381 1381 1381 1381
1399 1398 1398 1397 1396 1396 1395 1395 1394 1393 1392 1391 1390 1389 1388 1387 1386 1385 1384 1383 1382 1381 1380 1379 1379 1378 1377 1377 1377 1376 1376 1377 1377 1377 1377 1377 1377 1377 1377 1377 1377 1377 1377
1396 1395 1395 1394 1393 1393 1392 1391 1390 1390 1389 1388 1387 1386 1385 1384 1383 1382 1381 1380 1379 1377 1376 1376 1375 1374 1374 1373 1373 1372 1372 1372 1373 1373 1373 1373 1373 1373 1373 1373 1373 1373 1373